Location: Apollinopolis Magna
(24.9792°N, 32.8772°E)
Time: 10:34:47
(UTC+00:00)

DMSP B5D2-2 - Pass Details

Date: 02 March 2021
Orbit: 789 x 807 km, 98.3° (Epoch: 15 April)

Event Time Altitude Azimuth Distance (km) Brightness Sun altitude
Rises 16:59:25 0° 14° (NNE) 3,291 7.1 -16.2°
Reaches altitude 10° 17:01:46 10° 15° (NNE) 2,357 6.4 -16.8°
Maximum altitude 17:06:58 78° 102° (ESE) 809 3.9 -17.9°
Drops below altitude 10° 17:12:08 10° 188° (S) 2,342 6.6 -19.1°
Sets 17:14:27 0° 190° (S) 3,268 7.4 -19.6°
